Location: Eaton Estates
(41.3089°N, 82.0057°W)
Time: 08:35:48
(UTC+00:00)

Cosmos 1300 - Pass Details

Date: 17 June 2021
Orbit: 509 x 513 km, 82.5° (Epoch: 27 July)

Event Time Altitude Azimuth Distance (km) Brightness Sun altitude
Rises 02:48:53 0° 8° (N) 2,634 7.0 -15.4°
Reaches altitude 10° 02:51:31 10° 26° (NNE) 1,742 5.7 -15.7°
Maximum altitude 02:54:18 19° 73° (ENE) 1,261 4.5 -16.0°
Enters shadow 02:55:04 18° 90° (E) 1,301 4.4 -16.1°
